Regional Weather Roundup
Issued by NWS

Home | Current Version | Previous Version | Graphics & Text | Print | Product List | Glossary On
Versions: 1 2 3 4 5 6 7 8 9 10 11 12 13 14 15 16 17 18 19 20 21 22 23 24 25 26 27 28 29 30 31 32 33 34 35 36 37 38 39 40 41 42 43 44 45 46 47 48 49 50
000
ASUS43 KLMK 270902
RWRKY
KENTUCKY REGIONAL WEATHER ROUNDUP
NATIONAL WEATHER SERVICE LOUISVILLE KY
500 AM EDT WED MAY 27 2015

NOTE "FAIR" INDICATES FEW OR NO CLOUDS BELOW 12,000 FEET
WITH NO SIGNIFICANT WEATHER AND/OR OBSTRUCTIONS TO VISIBILITY.

KYZ001>023-026-027-061>063-070>075-271000-
WESTERN AND SOUTH CENTRAL KENTUCKY

CITY           SKY/WX    TMP DP  RH WIND       PRES   REMARKS
PADUCAH        CLEAR     62  60  93 SE3       30.05R
HENDERSON      CLEAR     64  59  82 SW7       30.04R
OWENSBORO      PTCLDY    65  63  93 S7        30.07R
HOPKINSVILLE   PTCLDY    66  65  95 S6        30.08F
BOWLING GREEN  PTCLDY    67  64  90 SW3       30.11R
GLASGOW        NOT AVBL
$$

KYZ024-025-028>034-038-045-046-053-271000-
NORTH CENTRAL KENTUCKY

CITY           SKY/WX    TMP DP  RH WIND       PRES   REMARKS
LOUISVILLE/SDF MOCLDY    69  64  84 S7        30.07R
LOUISVILLE/LOU PTCLDY    67  65  93 CALM      30.08R
FORT KNOX      PTCLDY    64  63  94 S3        30.08R
$$

KYZ035>037-039>044-047>052-055>060-089>105-271000-
NORTHEAST KENTUCKY

CITY           SKY/WX    TMP DP  RH WIND       PRES   REMARKS
LEXINGTON      MOCLDY    68  66  93 SW9       30.10R
COVINGTON      PTCLDY    66  64  93 S7        30.06R FOG
FRANKFORT      CLOUDY    68  66  93 SW8       30.08S
$$

KYZ054-064>069-076>088-106>120-271000-
SOUTHEAST KENTUCKY

CITY           SKY/WX    TMP DP  RH WIND       PRES   REMARKS
JACKSON        MOCLDY    66  64  93 CALM      30.14S
LONDON         MOCLDY    67  62  84 CALM      30.15R
SOMERSET       NOT AVBL
MIDDLESBORO    CLOUDY    67  64  89 S5        30.17R
MONTICELLO     MOSUNNY   67  67 100 CALM      30.17R
$$




USA.gov is the U.S. government's official web portal to all federal, state and local government web resources and services.